Time,TemperatureF,DewpointF,PressureIn,WindDirection,WindDirectionDegrees,WindSpeedMPH,WindSpeedGustMPH,Humidity,HourlyPrecipIn,Conditions,Clouds,dailyrainin,SoftwareType,DateUTC
2013-06-18 00:01:00,70.5,67.8,29.82,WSW,250,0.0,0.0,91,0.00,RA,OVC,0.00,WeatherDisplay:10.37,2013-06-18 04:01:00,
2013-06-18 00:06:00,70.5,67.8,29.82,WSW,250,0.0,0.0,91,0.00,RA,OVC,0.00,WeatherDisplay:10.37,2013-06-18 04:06:00,
2013-06-18 00:11:00,70.3,67.9,29.82,WSW,250,0.0,0.0,92,0.00,FEW,OVC,0.00,WeatherDisplay:10.37,2013-06-18 04:11:00,
2013-06-18 00:16:00,70.3,67.9,29.82,WSW,250,0.0,0.0,92,0.00,CLR,OVC,0.00,WeatherDisplay:10.37,2013-06-18 04:16:00,
2013-06-18 00:21:00,70.3,67.9,29.81,WSW,250,0.0,0.0,92,0.00,CLR,OVC,0.00,WeatherDisplay:10.37,2013-06-18 04:21:00,
2013-06-18 00:26:00,70.3,67.9,29.81,WSW,250,0.0,0.0,92,0.00,CLR,OVC,0.00,WeatherDisplay:10.37,2013-06-18 04:26:00,
2013-06-18 00:31:00,70.3,67.9,29.81,WSW,250,0.0,0.0,92,0.00,CLR,OVC,0.00,WeatherDisplay:10.37,2013-06-18 04:31:00,
2013-06-18 00:36:00,70.3,67.9,29.81,WSW,250,0.0,0.0,92,0.00,CLR,OVC,0.00,WeatherDisplay:10.37,2013-06-18 04:36:00,
2013-06-18 00:41:00,70.3,67.9,29.81,WSW,250,0.0,0.0,92,0.00,CLR,OVC,0.00,WeatherDisplay:10.37,2013-06-18 04:41:00,
2013-06-18 00:46:00,70.3,67.9,29.81,WSW,250,0.0,0.0,92,0.00,CLR,OVC,0.00,WeatherDisplay:10.37,2013-06-18 04:46:00,
2013-06-18 00:51:00,70.3,67.9,29.81,WSW,250,0.0,0.0,92,0.00,CLR,OVC,0.00,WeatherDisplay:10.37,2013-06-18 04:51:00,
2013-06-18 00:56:00,70.3,67.9,29.81,WSW,250,0.0,0.0,92,0.00,CLR,OVC,0.00,WeatherDisplay:10.37,2013-06-18 04:56:00,
2013-06-18 01:01:00,70.2,67.7,29.81,WSW,250,0.0,0.0,92,0.00,CLR,OVC,0.00,WeatherDisplay:10.37,2013-06-18 05:01:00,
2013-06-18 01:06:00,70.2,67.7,29.80,WSW,250,0.0,0.0,92,0.00,CLR,OVC,0.00,WeatherDisplay:10.37,2013-06-18 05:06:00,
2013-06-18 01:11:00,70.2,68.0,29.80,WSW,250,0.0,0.0,93,0.00,CLR,OVC,0.00,WeatherDisplay:10.37,2013-06-18 05:11:00,
2013-06-18 01:16:00,70.2,68.0,29.81,SSE,150,5.8,5.8,93,0.00,OVC,,0.00,WeatherDisplay:10.37,2013-06-18 05:16:00,
2013-06-18 01:21:00,70.2,68.0,29.80,SSE,150,5.8,5.8,93,0.00,OVC,,0.00,WeatherDisplay:10.37,2013-06-18 05:21:00,
2013-06-18 01:26:00,70.2,68.0,29.80,SSE,150,5.8,5.8,93,0.00,OVC,,0.00,WeatherDisplay:10.37,2013-06-18 05:26:00,
2013-06-18 01:31:00,70.2,68.0,29.80,SSE,150,5.8,5.8,93,0.00,OVC,,0.00,WeatherDisplay:10.37,2013-06-18 05:31:00,
2013-06-18 01:36:00,70.2,68.0,29.79,SSE,150,5.8,5.8,93,0.00,OVC,,0.00,WeatherDisplay:10.37,2013-06-18 05:36:00,
2013-06-18 01:41:00,70.2,68.0,29.78,SSE,150,5.8,5.8,93,0.00,OVC,,0.00,WeatherDisplay:10.37,2013-06-18 05:41:00,
2013-06-18 01:46:00,70.2,68.0,29.80,South,170,5.8,5.8,93,0.00,OVC,,0.00,WeatherDisplay:10.37,2013-06-18 05:46:00,
2013-06-18 01:51:00,70.2,68.0,29.80,South,170,3.5,3.5,93,0.00,OVC,,0.00,WeatherDisplay:10.37,2013-06-18 05:51:00,
2013-06-18 01:56:00,70.2,68.0,29.80,South,170,3.5,3.5,93,0.00,OVC,,0.00,WeatherDisplay:10.37,2013-06-18 05:56:00,
2013-06-18 02:01:00,70.3,68.2,29.80,South,170,3.5,3.5,93,0.00,OVC,,0.00,WeatherDisplay:10.37,2013-06-18 06:01:00,
2013-06-18 02:06:00,70.3,68.2,29.80,South,170,3.5,3.5,93,0.00,OVC,,0.00,WeatherDisplay:10.37,2013-06-18 06:06:00,
2013-06-18 02:11:00,70.3,68.5,29.80,South,170,3.5,3.5,94,0.00,OVC,,0.00,WeatherDisplay:10.37,2013-06-18 06:11:00,
2013-06-18 02:16:00,70.3,68.5,29.79,SSE,150,3.5,3.5,94,0.00,OVC,,0.00,WeatherDisplay:10.37,2013-06-18 06:16:00,
2013-06-18 02:21:00,70.3,68.5,29.79,SSE,150,3.5,3.5,94,0.00,OVC,,0.00,WeatherDisplay:10.37,2013-06-18 06:21:00,
2013-06-18 02:26:00,70.3,68.5,29.80,SSE,150,3.5,3.5,94,0.00,OVC,,0.00,WeatherDisplay:10.37,2013-06-18 06:26:00,
2013-06-18 02:31:00,70.3,68.5,29.80,SSE,150,3.5,3.5,94,0.00,OVC,,0.00,WeatherDisplay:10.37,2013-06-18 06:31:00,
2013-06-18 02:36:00,70.5,68.7,29.80,SSE,150,3.5,3.5,94,0.00,OVC,,0.00,WeatherDisplay:10.37,2013-06-18 06:36:00,
2013-06-18 02:41:00,70.5,68.7,29.79,SSE,150,3.5,3.5,94,0.00,OVC,,0.00,WeatherDisplay:10.37,2013-06-18 06:41:00,
2013-06-18 02:46:00,70.5,68.7,29.80,SSE,150,3.5,3.5,94,0.02,RA,OVC,0.02,WeatherDisplay:10.37,2013-06-18 06:46:00,
2013-06-18 02:50:00,78.4,73.9,29.74,WSW,250,0.0,0.0,86,0.00,RA,OVC,0.26,WeatherDisplay:10.37,2013-06-18 06:50:00,
2013-06-18 02:51:00,70.5,68.7,29.80,SSE,150,3.5,3.5,94,0.02,RA,OVC,0.02,WeatherDisplay:10.37,2013-06-18 06:51:00,
2013-06-18 02:56:00,70.5,68.7,29.79,SSE,150,3.5,3.5,94,0.02,OVC,,0.02,WeatherDisplay:10.37,2013-06-18 06:56:00,
2013-06-18 03:00:00,78.4,73.9,29.74,WSW,248,0.0,0.0,86,0.00,CLR,OVC,0.26,WeatherDisplay:10.37,2013-06-18 07:00:00,
2013-06-18 03:01:00,70.5,68.7,29.80,SSE,150,3.5,3.5,94,0.02,OVC,,0.02,WeatherDisplay:10.37,2013-06-18 07:01:00,
2013-06-18 03:06:00,70.5,68.7,29.80,SSE,150,3.5,3.5,94,0.02,OVC,,0.02,WeatherDisplay:10.37,2013-06-18 07:06:00,
2013-06-18 03:10:00,78.4,73.9,29.74,WSW,248,0.0,0.0,86,0.00,CLR,OVC,0.26,WeatherDisplay:10.37,2013-06-18 07:10:00,
2013-06-18 03:11:00,70.5,68.7,29.80,SSE,150,3.5,3.5,94,0.02,OVC,,0.02,WeatherDisplay:10.37,2013-06-18 07:11:00,
2013-06-18 03:16:00,70.5,68.7,29.79,SW,220,3.5,4.6,94,0.02,-RA,OVC,0.02,WeatherDisplay:10.37,2013-06-18 07:16:00,
2013-06-18 03:20:00,78.4,73.9,29.74,WSW,248,0.0,0.0,86,0.00,CLR,OVC,0.26,WeatherDisplay:10.37,2013-06-18 07:20:00,
2013-06-18 03:21:00,70.5,68.7,29.80,SW,220,4.6,4.6,94,0.02,-RA,OVC,0.02,WeatherDisplay:10.37,2013-06-18 07:21:00,
2013-06-18 03:26:00,70.7,68.9,29.79,SW,220,4.6,4.6,94,0.02,-RA,OVC,0.02,WeatherDisplay:10.37,2013-06-18 07:26:00,
2013-06-18 03:30:00,78.4,73.9,29.74,WSW,248,0.0,0.0,86,0.00,CLR,OVC,0.26,WeatherDisplay:10.37,2013-06-18 07:30:00,
2013-06-18 03:31:00,70.7,68.9,29.79,SW,220,4.6,4.6,94,0.02,-RA,OVC,0.02,WeatherDisplay:10.37,2013-06-18 07:31:00,
2013-06-18 03:36:00,70.7,68.9,29.79,SW,220,4.6,4.6,94,0.02,-RA,OVC,0.02,WeatherDisplay:10.37,2013-06-18 07:36:00,
2013-06-18 03:40:00,78.4,73.9,29.74,WSW,248,0.0,0.0,86,0.00,CLR,OVC,0.26,WeatherDisplay:10.37,2013-06-18 07:40:00,
2013-06-18 03:41:00,70.5,68.7,29.79,SW,220,4.6,4.6,94,0.02,-RA,OVC,0.02,WeatherDisplay:10.37,2013-06-18 07:41:00,
2013-06-18 03:46:00,70.7,68.9,29.78,SW,220,4.6,0.0,94,0.00,OVC,,0.02,WeatherDisplay:10.37,2013-06-18 07:46:00,
2013-06-18 03:50:00,81.1,74.4,29.73,WSW,248,0.0,0.0,80,0.00,CLR,OVC,0.26,WeatherDisplay:10.37,2013-06-18 07:50:00,
2013-06-18 03:51:00,70.7,68.9,29.78,SW,220,0.0,0.0,94,0.00,OVC,,0.02,WeatherDisplay:10.37,2013-06-18 07:51:00,
2013-06-18 03:56:00,70.7,68.9,29.78,SW,220,0.0,0.0,94,0.00,OVC,,0.02,WeatherDisplay:10.37,2013-06-18 07:56:00,
2013-06-18 04:00:00,81.1,74.4,29.73,WSW,248,0.0,0.0,80,0.00,CLR,OVC,0.26,WeatherDisplay:10.37,2013-06-18 08:00:00,
2013-06-18 04:01:00,70.7,68.9,29.78,SW,220,0.0,0.0,94,0.00,OVC,,0.02,WeatherDisplay:10.37,2013-06-18 08:01:00,
2013-06-18 04:06:00,70.7,68.9,29.78,SW,220,0.0,0.0,94,0.00,OVC,,0.02,WeatherDisplay:10.37,2013-06-18 08:06:00,
2013-06-18 04:10:00,81.1,74.4,29.73,WSW,248,0.0,0.0,80,0.00,CLR,OVC,0.26,WeatherDisplay:10.37,2013-06-18 08:10:00,
2013-06-18 04:11:00,70.5,68.7,29.77,SW,220,0.0,0.0,94,0.00,OVC,,0.02,WeatherDisplay:10.37,2013-06-18 08:11:00,
2013-06-18 04:16:00,70.5,68.7,29.78,SW,230,3.5,3.5,94,0.00,BKN,OVC,0.02,WeatherDisplay:10.37,2013-06-18 08:16:00,
2013-06-18 04:20:00,81.1,74.4,29.73,WSW,248,0.0,0.0,80,0.00,CLR,OVC,0.26,WeatherDisplay:10.37,2013-06-18 08:20:00,
2013-06-18 04:21:00,70.5,68.7,29.78,SW,230,3.5,3.5,94,0.00,BKN,OVC,0.02,WeatherDisplay:10.37,2013-06-18 08:21:00,
2013-06-18 04:26:00,70.5,68.7,29.78,SW,230,3.5,3.5,94,0.00,BKN,OVC,0.02,WeatherDisplay:10.37,2013-06-18 08:26:00,
2013-06-18 04:30:00,81.1,74.4,29.73,WSW,248,0.0,0.0,80,0.00,CLR,OVC,0.26,WeatherDisplay:10.37,2013-06-18 08:30:00,
2013-06-18 04:31:00,70.5,68.7,29.77,SW,230,3.5,3.5,94,0.00,BKN,OVC,0.02,WeatherDisplay:10.37,2013-06-18 08:31:00,
2013-06-18 04:36:00,70.5,68.7,29.77,SW,230,3.5,3.5,94,0.00,BKN,OVC,0.02,WeatherDisplay:10.37,2013-06-18 08:36:00,
2013-06-18 04:40:00,81.1,74.4,29.73,WSW,248,0.0,0.0,80,0.00,CLR,OVC,0.26,WeatherDisplay:10.37,2013-06-18 08:40:00,
2013-06-18 04:41:00,70.5,68.7,29.77,SW,230,3.5,3.5,94,0.00,BKN,OVC,0.02,WeatherDisplay:10.37,2013-06-18 08:41:00,
2013-06-18 04:46:00,70.3,68.5,29.77,SW,230,3.5,3.5,94,0.00,BKN,OVC,0.02,WeatherDisplay:10.37,2013-06-18 08:46:00,
2013-06-18 04:50:00,78.6,74.1,29.75,WSW,248,0.0,0.0,86,0.00,CLR,OVC,0.26,WeatherDisplay:10.37,2013-06-18 08:50:00,
2013-06-18 04:51:00,70.3,68.5,29.77,SW,230,3.5,3.5,94,0.00,BKN,OVC,0.02,WeatherDisplay:10.37,2013-06-18 08:51:00,
2013-06-18 04:56:00,70.3,68.5,29.77,SW,230,3.5,3.5,94,0.00,BKN,OVC,0.02,WeatherDisplay:10.37,2013-06-18 08:56:00,
2013-06-18 05:00:00,78.6,74.1,29.75,WSW,248,0.0,0.0,86,0.00,CLR,OVC,0.26,WeatherDisplay:10.37,2013-06-18 09:00:00,
2013-06-18 05:01:00,70.3,68.5,29.77,SW,230,3.5,3.5,94,0.00,BKN,OVC,0.02,WeatherDisplay:10.37,2013-06-18 09:01:00,
2013-06-18 05:06:00,70.3,68.5,29.78,SW,230,3.5,3.5,94,0.00,BKN,OVC,0.02,WeatherDisplay:10.37,2013-06-18 09:06:00,
2013-06-18 05:10:00,78.6,74.1,29.75,WSW,248,0.0,0.0,86,0.00,CLR,OVC,0.26,WeatherDisplay:10.37,2013-06-18 09:10:00,
2013-06-18 05:11:00,70.3,68.5,29.78,SW,230,3.5,3.5,94,0.00,BKN,OVC,0.02,WeatherDisplay:10.37,2013-06-18 09:11:00,
2013-06-18 05:16:00,70.2,68.4,29.78,SW,230,3.5,0.0,94,0.00,BKN,OVC,0.02,WeatherDisplay:10.37,2013-06-18 09:16:00,
2013-06-18 05:20:00,78.6,74.1,29.75,WSW,248,0.0,0.0,86,0.00,CLR,OVC,0.26,WeatherDisplay:10.37,2013-06-18 09:20:00,
2013-06-18 05:21:00,70.2,68.4,29.78,SW,230,0.0,0.0,94,0.00,BKN,OVC,0.02,WeatherDisplay:10.37,2013-06-18 09:21:00,
2013-06-18 05:26:00,70.0,68.2,29.78,SW,230,0.0,0.0,94,0.00,BKN,OVC,0.02,WeatherDisplay:10.37,2013-06-18 09:26:00,
2013-06-18 05:30:00,78.6,74.1,29.75,WSW,248,0.0,0.0,86,0.00,CLR,OVC,0.26,WeatherDisplay:10.37,2013-06-18 09:30:00,
2013-06-18 05:31:00,70.0,68.2,29.78,SW,230,0.0,0.0,94,0.00,BKN,OVC,0.02,WeatherDisplay:10.37,2013-06-18 09:31:00,
2013-06-18 05:36:00,70.0,68.2,29.78,SW,230,0.0,0.0,94,0.00,BKN,OVC,0.02,WeatherDisplay:10.37,2013-06-18 09:36:00,
2013-06-18 05:40:00,78.6,74.1,29.75,WSW,248,0.0,0.0,86,0.00,CLR,OVC,0.26,WeatherDisplay:10.37,2013-06-18 09:40:00,
2013-06-18 05:41:00,69.8,68.0,29.78,SW,230,0.0,0.0,94,0.00,BKN,OVC,0.02,WeatherDisplay:10.37,2013-06-18 09:41:00,
2013-06-18 05:42:00,78.2,73.7,29.74,WSW,248,0.0,0.0,86,0.00,CLR,OVC,0.26,WeatherDisplay:10.37,2013-06-18 09:42:00,
2013-06-18 05:43:00,78.2,73.7,29.74,WSW,248,0.0,0.0,86,0.00,CLR,OVC,0.26,WeatherDisplay:10.37,2013-06-18 09:43:00,
2013-06-18 05:44:00,78.2,73.7,29.74,WSW,248,0.0,0.0,86,0.00,CLR,OVC,0.26,WeatherDisplay:10.37,2013-06-18 09:44:00,
2013-06-18 05:45:00,78.2,73.7,29.74,WSW,248,0.0,0.0,86,0.00,CLR,OVC,0.26,WeatherDisplay:10.37,2013-06-18 09:45:00,
2013-06-18 05:46:00,69.8,68.0,29.78,SW,230,0.0,0.0,94,0.00,BKN,OVC,0.02,WeatherDisplay:10.37,2013-06-18 09:46:00,
2013-06-18 05:47:00,78.2,73.7,29.74,WSW,248,0.0,0.0,86,0.00,CLR,OVC,0.26,WeatherDisplay:10.37,2013-06-18 09:47:00,
2013-06-18 05:48:00,78.2,73.7,29.74,WSW,248,0.0,0.0,86,0.00,CLR,OVC,0.26,WeatherDisplay:10.37,2013-06-18 09:48:00,
2013-06-18 05:49:00,78.2,73.7,29.74,WSW,248,0.0,0.0,86,0.00,CLR,OVC,0.26,WeatherDisplay:10.37,2013-06-18 09:49:00,
2013-06-18 05:50:00,78.2,73.7,29.74,WSW,248,0.0,0.0,86,0.00,CLR,OVC,0.26,WeatherDisplay:10.37,2013-06-18 09:50:00,
2013-06-18 05:51:00,69.6,67.8,29.78,SW,230,0.0,0.0,94,0.00,BKN,OVC,0.02,WeatherDisplay:10.37,2013-06-18 09:51:00,
2013-06-18 05:56:00,69.6,67.8,29.78,SW,230,0.0,0.0,94,0.00,BKN,OVC,0.02,WeatherDisplay:10.37,2013-06-18 09:56:00,
2013-06-18 06:01:00,69.6,67.8,29.78,SW,230,0.0,0.0,94,0.00,BKN,OVC,0.02,WeatherDisplay:10.37,2013-06-18 10:01:00,
2013-06-18 06:06:00,69.6,67.8,29.78,SW,230,0.0,0.0,94,0.00,BKN,OVC,0.02,WeatherDisplay:10.37,2013-06-18 10:06:00,
2013-06-18 06:11:00,69.6,67.8,29.79,SW,230,0.0,0.0,94,0.00,BKN,OVC,0.02,WeatherDisplay:10.37,2013-06-18 10:11:00,
2013-06-18 06:16:00,69.6,67.8,29.79,SW,230,0.0,0.0,94,0.00,OVC,,0.02,WeatherDisplay:10.37,2013-06-18 10:16:00,
2013-06-18 06:21:00,69.6,67.8,29.79,SW,230,0.0,0.0,94,0.00,OVC,,0.02,WeatherDisplay:10.37,2013-06-18 10:21:00,
2013-06-18 06:26:00,69.6,67.8,29.79,SW,230,0.0,0.0,94,0.00,OVC,,0.02,WeatherDisplay:10.37,2013-06-18 10:26:00,
2013-06-18 06:31:00,69.6,67.8,29.78,SW,230,0.0,0.0,94,0.00,OVC,,0.02,WeatherDisplay:10.37,2013-06-18 10:31:00,
2013-06-18 06:36:00,69.6,67.8,29.79,SW,230,0.0,0.0,94,0.00,OVC,,0.02,WeatherDisplay:10.37,2013-06-18 10:36:00,
2013-06-18 06:41:00,69.4,67.6,29.78,SW,230,0.0,0.0,94,0.00,OVC,,0.02,WeatherDisplay:10.37,2013-06-18 10:41:00,
2013-06-18 06:46:00,69.6,67.8,29.78,SW,230,0.0,0.0,94,0.00,OVC,,0.02,WeatherDisplay:10.37,2013-06-18 10:46:00,
2013-06-18 06:51:00,69.6,67.8,29.78,SW,230,0.0,0.0,94,0.00,OVC,,0.02,WeatherDisplay:10.37,2013-06-18 10:51:00,
2013-06-18 06:56:00,69.6,67.8,29.78,SW,230,0.0,0.0,94,0.00,OVC,,0.02,WeatherDisplay:10.37,2013-06-18 10:56:00,
2013-06-18 07:01:00,69.6,67.8,29.78,SW,230,0.0,0.0,94,0.00,OVC,,0.02,WeatherDisplay:10.37,2013-06-18 11:01:00,
2013-06-18 07:06:00,69.6,67.8,29.78,SW,230,0.0,0.0,94,0.00,OVC,,0.02,WeatherDisplay:10.37,2013-06-18 11:06:00,
2013-06-18 07:11:00,69.6,68.1,29.79,SW,230,0.0,0.0,95,0.00,OVC,,0.02,WeatherDisplay:10.37,2013-06-18 11:11:00,
2013-06-18 07:16:00,69.6,68.1,29.79,SW,220,0.0,4.6,95,0.02,RA,OVC,0.04,WeatherDisplay:10.37,2013-06-18 11:16:00,
2013-06-18 07:21:00,69.6,68.1,29.78,SW,220,4.6,4.6,95,0.08,RA,OVC,0.10,WeatherDisplay:10.37,2013-06-18 11:21:00,
2013-06-18 07:26:00,69.6,68.1,29.79,SW,220,4.6,4.6,95,0.10,RA,OVC,0.12,WeatherDisplay:10.37,2013-06-18 11:26:00,
2013-06-18 07:31:00,69.4,67.9,29.78,SW,220,4.6,4.6,95,0.10,RA,OVC,0.12,WeatherDisplay:10.37,2013-06-18 11:31:00,
2013-06-18 07:36:00,69.4,67.9,29.78,SW,220,4.6,4.6,95,0.10,BKN,OVC,0.12,WeatherDisplay:10.37,2013-06-18 11:36:00,
2013-06-18 07:41:00,69.4,67.9,29.79,SW,220,4.6,4.6,95,0.10,BKN,OVC,0.12,WeatherDisplay:10.37,2013-06-18 11:41:00,
2013-06-18 07:46:00,69.4,67.9,29.79,SW,220,4.6,4.6,95,0.10,BKN,OVC,0.12,WeatherDisplay:10.37,2013-06-18 11:46:00,
2013-06-18 07:51:00,69.6,68.1,29.79,SW,220,4.6,4.6,95,0.10,BKN,OVC,0.12,WeatherDisplay:10.37,2013-06-18 11:51:00,
2013-06-18 07:56:00,69.6,68.1,29.80,SW,220,4.6,4.6,95,0.10,BKN,OVC,0.12,WeatherDisplay:10.37,2013-06-18 11:56:00,
2013-06-18 08:01:00,69.6,68.1,29.80,SW,220,4.6,4.6,95,0.10,BKN,OVC,0.12,WeatherDisplay:10.37,2013-06-18 12:01:00,
2013-06-18 08:06:00,69.6,68.1,29.80,SW,220,4.6,4.6,95,0.10,BKN,OVC,0.12,WeatherDisplay:10.37,2013-06-18 12:06:00,
2013-06-18 08:11:00,69.6,68.1,29.80,SW,220,4.6,4.6,95,0.10,BKN,OVC,0.12,WeatherDisplay:10.37,2013-06-18 12:11:00,
2013-06-18 08:16:00,69.6,68.1,29.80,SW,220,4.6,6.9,95,0.08,BKN,OVC,0.12,WeatherDisplay:10.37,2013-06-18 12:16:00,
2013-06-18 08:21:00,69.6,68.1,29.80,SW,220,6.9,6.9,95,0.02,BKN,OVC,0.12,WeatherDisplay:10.37,2013-06-18 12:21:00,
2013-06-18 08:26:00,69.6,68.1,29.81,SW,220,6.9,6.9,95,0.02,RA,OVC,0.14,WeatherDisplay:10.37,2013-06-18 12:26:00,
2013-06-18 08:31:00,69.6,68.1,29.81,SW,220,6.9,6.9,95,0.02,RA,OVC,0.14,WeatherDisplay:10.37,2013-06-18 12:31:00,
2013-06-18 08:36:00,69.6,68.1,29.81,SW,220,6.9,6.9,95,0.04,RA,OVC,0.16,WeatherDisplay:10.37,2013-06-18 12:36:00,
2013-06-18 08:41:00,69.4,67.9,29.81,SW,220,6.9,6.9,95,0.06,RA,OVC,0.18,WeatherDisplay:10.37,2013-06-18 12:41:00,
2013-06-18 08:46:00,69.4,67.9,29.82,SW,230,6.9,6.9,95,0.06,RA,OVC,0.18,WeatherDisplay:10.37,2013-06-18 12:46:00,
2013-06-18 08:51:00,69.3,67.8,29.82,SW,230,6.9,6.9,95,0.08,RA,OVC,0.20,WeatherDisplay:10.37,2013-06-18 12:51:00,
2013-06-18 08:56:00,69.4,67.9,29.82,SW,230,6.9,6.9,95,0.10,RA,OVC,0.22,WeatherDisplay:10.37,2013-06-18 12:56:00,
2013-06-18 09:01:00,69.4,67.9,29.82,SW,230,6.9,6.9,95,0.12,RA,OVC,0.24,WeatherDisplay:10.37,2013-06-18 13:01:00,
2013-06-18 09:06:00,69.4,67.9,29.82,SW,230,6.9,6.9,95,0.12,RA,OVC,0.24,WeatherDisplay:10.37,2013-06-18 13:06:00,
2013-06-18 09:11:00,69.4,67.9,29.82,SW,230,6.9,6.9,95,0.12,OVC,,0.24,WeatherDisplay:10.37,2013-06-18 13:11:00,
2013-06-18 09:16:00,69.4,67.9,29.82,West,260,6.9,8.1,95,0.12,-RA,OVC,0.24,WeatherDisplay:10.37,2013-06-18 13:16:00,
2013-06-18 09:21:00,69.4,67.9,29.82,West,260,8.1,8.1,95,0.14,-RA,OVC,0.26,WeatherDisplay:10.37,2013-06-18 13:21:00,
2013-06-18 09:26:00,69.6,68.1,29.81,West,260,8.1,8.1,95,0.12,-RA,OVC,0.26,WeatherDisplay:10.37,2013-06-18 13:26:00,
2013-06-18 09:31:00,69.6,68.1,29.81,West,260,8.1,8.1,95,0.12,-RA,OVC,0.26,WeatherDisplay:10.37,2013-06-18 13:31:00,
2013-06-18 09:36:00,69.6,68.1,29.81,West,260,8.1,8.1,95,0.10,-RA,OVC,0.26,WeatherDisplay:10.37,2013-06-18 13:36:00,
2013-06-18 09:41:00,69.8,68.3,29.81,West,260,8.1,8.1,95,0.08,-RA,OVC,0.26,WeatherDisplay:10.37,2013-06-18 13:41:00,
2013-06-18 09:46:00,69.8,68.3,29.80,West,260,9.2,9.2,95,0.08,-RA,OVC,0.26,WeatherDisplay:10.37,2013-06-18 13:46:00,
2013-06-18 09:51:00,69.8,68.3,29.80,West,260,9.2,9.2,95,0.06,-RA,OVC,0.26,WeatherDisplay:10.37,2013-06-18 13:51:00,
2013-06-18 09:56:00,69.8,68.3,29.78,West,260,9.2,9.2,95,0.04,-RA,OVC,0.26,WeatherDisplay:10.37,2013-06-18 13:56:00,
2013-06-18 10:01:00,70.0,68.5,29.78,West,260,9.2,9.2,95,0.02,-RA,OVC,0.26,WeatherDisplay:10.37,2013-06-18 14:01:00,
2013-06-18 10:06:00,70.0,68.5,29.78,West,260,9.2,9.2,95,0.02,-RA,OVC,0.26,WeatherDisplay:10.37,2013-06-18 14:06:00,
2013-06-18 10:11:00,70.0,68.5,29.78,West,260,9.2,9.2,95,0.02,-RA,OVC,0.26,WeatherDisplay:10.37,2013-06-18 14:11:00,
2013-06-18 10:16:00,69.8,68.0,29.78,WSW,250,25.3,25.3,94,0.02,-RA,OVC,0.26,WeatherDisplay:10.37,2013-06-18 14:16:00,
2013-06-18 10:21:00,70.0,68.5,29.78,WSW,250,25.3,25.3,95,0.00,-RA,OVC,0.26,WeatherDisplay:10.37,2013-06-18 14:21:00,
2013-06-18 10:26:00,70.2,68.7,29.79,WSW,250,25.3,25.3,95,0.00,-RA,OVC,0.26,WeatherDisplay:10.37,2013-06-18 14:26:00,
2013-06-18 10:31:00,70.3,68.8,29.78,WSW,250,25.3,25.3,95,0.00,-RA,OVC,0.26,WeatherDisplay:10.37,2013-06-18 14:31:00,
2013-06-18 10:36:00,70.3,68.5,29.78,WSW,250,25.3,25.3,94,0.00,-RA,OVC,0.26,WeatherDisplay:10.37,2013-06-18 14:36:00,
2013-06-18 10:41:00,70.7,68.9,29.78,WSW,250,25.3,25.3,94,0.00,-RA,OVC,0.26,WeatherDisplay:10.37,2013-06-18 14:41:00,
2013-06-18 10:46:00,71.2,69.7,29.78,WSW,250,25.3,25.3,95,0.00,-RA,OVC,0.26,WeatherDisplay:10.37,2013-06-18 14:46:00,
2013-06-18 10:51:00,71.8,70.3,29.78,WSW,250,25.3,25.3,95,0.00,-RA,OVC,0.26,WeatherDisplay:10.37,2013-06-18 14:51:00,
2013-06-18 10:56:00,72.1,70.3,29.77,WSW,250,25.3,25.3,94,0.00,-RA,OVC,0.26,WeatherDisplay:10.37,2013-06-18 14:56:00,
2013-06-18 11:01:00,72.7,70.9,29.77,WSW,250,25.3,25.3,94,0.00,-RA,OVC,0.26,WeatherDisplay:10.37,2013-06-18 15:01:00,
2013-06-18 11:06:00,72.9,71.0,29.77,WSW,250,25.3,25.3,94,0.00,-RA,OVC,0.26,WeatherDisplay:10.37,2013-06-18 15:06:00,
2013-06-18 11:11:00,73.0,70.9,29.77,WSW,250,25.3,25.3,93,0.00,-RA,OVC,0.26,WeatherDisplay:10.37,2013-06-18 15:11:00,
2013-06-18 11:16:00,73.2,71.1,29.77,WSW,250,25.3,25.3,93,0.00,SCT,OVC,0.26,WeatherDisplay:10.37,2013-06-18 15:16:00,
2013-06-18 11:21:00,73.8,71.6,29.78,WSW,250,8.1,8.1,93,0.00,SCT,OVC,0.26,WeatherDisplay:10.37,2013-06-18 15:21:00,
2013-06-18 11:26:00,74.1,72.0,29.78,WSW,250,8.1,8.1,93,0.00,SCT,OVC,0.26,WeatherDisplay:10.37,2013-06-18 15:26:00,
2013-06-18 11:31:00,74.5,72.0,29.78,WSW,250,8.1,8.1,92,0.00,SCT,OVC,0.26,WeatherDisplay:10.37,2013-06-18 15:31:00,
2013-06-18 11:36:00,75.2,72.4,29.78,WSW,250,8.1,8.1,91,0.00,SCT,OVC,0.26,WeatherDisplay:10.37,2013-06-18 15:36:00,
2013-06-18 11:41:00,75.6,72.7,29.77,WSW,250,8.1,8.1,91,0.00,SCT,OVC,0.26,WeatherDisplay:10.37,2013-06-18 15:41:00,
2013-06-18 11:46:00,75.9,72.8,29.77,WSW,250,8.1,8.1,90,0.00,SCT,OVC,0.26,WeatherDisplay:10.37,2013-06-18 15:46:00,
2013-06-18 11:51:00,76.3,72.8,29.77,WSW,250,8.1,8.1,89,0.00,SCT,OVC,0.26,WeatherDisplay:10.37,2013-06-18 15:51:00,
2013-06-18 11:56:00,76.6,72.8,29.77,WSW,250,8.1,8.1,88,0.00,SCT,OVC,0.26,WeatherDisplay:10.37,2013-06-18 15:56:00,
2013-06-18 12:01:00,76.8,72.7,29.76,WSW,250,8.1,8.1,87,0.00,SCT,OVC,0.26,WeatherDisplay:10.37,2013-06-18 16:01:00,
2013-06-18 12:06:00,76.8,72.7,29.76,WSW,250,8.1,8.1,87,0.00,SCT,OVC,0.26,WeatherDisplay:10.37,2013-06-18 16:06:00,
2013-06-18 12:11:00,77.2,73.0,29.76,WSW,250,8.1,8.1,87,0.00,SCT,OVC,0.26,WeatherDisplay:10.37,2013-06-18 16:11:00,
2013-06-18 12:16:00,77.4,73.5,29.76,WSW,250,24.2,24.2,88,0.00,CLR,OVC,0.26,WeatherDisplay:10.37,2013-06-18 16:16:00,
2013-06-18 12:21:00,77.7,73.5,29.76,WSW,250,24.2,24.2,87,0.00,CLR,OVC,0.26,WeatherDisplay:10.37,2013-06-18 16:21:00,
2013-06-18 12:26:00,77.7,73.5,29.76,WSW,250,24.2,24.2,87,0.00,CLR,OVC,0.26,WeatherDisplay:10.37,2013-06-18 16:26:00,
2013-06-18 12:31:00,78.1,73.9,29.75,WSW,250,24.2,24.2,87,0.00,CLR,OVC,0.26,WeatherDisplay:10.37,2013-06-18 16:31:00,
2013-06-18 12:36:00,78.1,73.5,29.75,WSW,250,24.2,24.2,86,0.00,CLR,OVC,0.26,WeatherDisplay:10.37,2013-06-18 16:36:00,
2013-06-18 12:41:00,78.3,73.7,29.75,WSW,250,24.2,24.2,86,0.00,CLR,OVC,0.26,WeatherDisplay:10.37,2013-06-18 16:41:00,
2013-06-18 15:50:00,77.5,73.4,29.73,WSW,250,24.2,24.2,87,0.00,CLR,OVC,0.26,WeatherDisplay:10.37,2013-06-18 19:50:00,
2013-06-18 15:55:00,77.5,73.4,29.73,WSW,250,24.2,24.2,87,0.00,BKN,OVC,0.26,WeatherDisplay:10.37,2013-06-18 19:55:00,
2013-06-18 16:00:00,77.5,73.4,29.73,WSW,250,24.2,24.2,87,0.00,BKN,OVC,0.26,WeatherDisplay:10.37,2013-06-18 20:00:00,
2013-06-18 16:05:00,78.1,73.9,29.72,WSW,250,24.2,24.2,87,0.00,BKN,OVC,0.26,WeatherDisplay:10.37,2013-06-18 20:05:00,
2013-06-18 16:10:00,78.4,74.2,29.72,WSW,250,24.2,24.2,87,0.00,BKN,OVC,0.26,WeatherDisplay:10.37,2013-06-18 20:10:00,
2013-06-18 16:15:00,78.6,74.4,29.73,WSW,250,24.2,24.2,87,0.00,BKN,OVC,0.26,WeatherDisplay:10.37,2013-06-18 20:15:00,
2013-06-18 16:20:00,78.6,73.7,29.73,West,270,8.1,8.1,85,0.00,BKN,OVC,0.26,WeatherDisplay:10.37,2013-06-18 20:20:00,
2013-06-18 16:25:00,78.6,73.7,29.72,West,270,8.1,8.1,85,0.00,BKN,OVC,0.26,WeatherDisplay:10.37,2013-06-18 20:25:00,
2013-06-18 16:30:00,78.6,74.1,29.73,West,270,8.1,8.1,86,0.00,BKN,OVC,0.26,WeatherDisplay:10.37,2013-06-18 20:30:00,
2013-06-18 16:35:00,78.6,73.4,29.72,West,270,8.1,8.1,84,0.00,BKN,OVC,0.26,WeatherDisplay:10.37,2013-06-18 20:35:00,
2013-06-18 16:40:00,78.6,73.4,29.72,West,270,8.1,8.1,84,0.00,BKN,OVC,0.26,WeatherDisplay:10.37,2013-06-18 20:40:00,
2013-06-18 16:45:00,78.6,73.7,29.71,West,270,8.1,8.1,85,0.00,BKN,OVC,0.26,WeatherDisplay:10.37,2013-06-18 20:45:00,
2013-06-18 16:50:00,79.0,74.1,29.72,West,270,8.1,8.1,85,0.00,BKN,OVC,0.26,WeatherDisplay:10.37,2013-06-18 20:50:00,
2013-06-18 16:55:00,79.0,73.7,29.72,West,270,8.1,8.1,84,0.00,BKN,OVC,0.26,WeatherDisplay:10.37,2013-06-18 20:55:00,
2013-06-18 17:00:00,79.0,73.7,29.72,West,270,8.1,8.1,84,0.00,BKN,OVC,0.26,WeatherDisplay:10.37,2013-06-18 21:00:00,
2013-06-18 17:05:00,79.0,73.7,29.72,West,270,8.1,8.1,84,0.00,BKN,OVC,0.26,WeatherDisplay:10.37,2013-06-18 21:05:00,
2013-06-18 17:10:00,78.6,73.0,29.72,West,270,8.1,8.1,83,0.00,BKN,OVC,0.26,WeatherDisplay:10.37,2013-06-18 21:10:00,
2013-06-18 17:15:00,78.6,73.0,29.71,West,270,8.1,8.1,83,0.00,BKN,OVC,0.26,WeatherDisplay:10.37,2013-06-18 21:15:00,
2013-06-18 17:20:00,78.6,73.4,29.71,West,270,9.2,9.2,84,0.00,BKN,OVC,0.26,WeatherDisplay:10.37,2013-06-18 21:20:00,
2013-06-18 17:25:00,78.6,73.4,29.71,West,270,9.2,9.2,84,0.00,BKN,OVC,0.26,WeatherDisplay:10.37,2013-06-18 21:25:00,
2013-06-18 17:30:00,79.0,73.7,29.70,West,270,9.2,9.2,84,0.00,BKN,OVC,0.26,WeatherDisplay:10.37,2013-06-18 21:30:00,
2013-06-18 17:35:00,79.2,73.9,29.71,West,270,9.2,9.2,84,0.00,BKN,OVC,0.26,WeatherDisplay:10.37,2013-06-18 21:35:00,
2013-06-18 17:40:00,79.2,73.2,29.70,West,270,9.2,9.2,82,0.00,BKN,OVC,0.26,WeatherDisplay:10.37,2013-06-18 21:40:00,
2013-06-18 17:46:00,79.0,73.4,29.70,West,270,9.2,9.2,83,0.00,SCT,OVC,0.26,WeatherDisplay:10.37,2013-06-18 21:46:00,
2013-06-18 17:51:00,78.6,73.0,29.70,West,270,9.2,9.2,83,0.00,SCT,OVC,0.26,WeatherDisplay:10.37,2013-06-18 21:51:00,
2013-06-18 17:58:00,78.1,72.5,29.70,West,270,9.2,9.2,83,0.00,SCT,OVC,0.26,WeatherDisplay:10.37,2013-06-18 21:58:00,
2013-06-18 18:03:00,77.7,72.5,29.70,West,270,9.2,9.2,84,0.00,SCT,OVC,0.26,WeatherDisplay:10.37,2013-06-18 22:03:00,
2013-06-18 18:08:00,77.2,72.0,29.70,West,270,9.2,9.2,84,0.00,SCT,OVC,0.28,WeatherDisplay:10.37,2013-06-18 22:08:00,
2013-06-18 18:13:00,76.8,72.0,29.70,West,270,9.2,9.2,85,0.02,RA,OVC,0.28,WeatherDisplay:10.37,2013-06-18 22:13:00,
2013-06-18 18:18:00,76.6,72.1,29.71,SW,230,10.4,10.4,86,0.04,RA,OVC,0.30,WeatherDisplay:10.37,2013-06-18 22:18:00,
2013-06-18 18:23:00,76.1,71.6,29.71,SW,230,10.4,10.4,86,0.04,RA,OVC,0.30,WeatherDisplay:10.37,2013-06-18 22:23:00,
2013-06-18 18:28:00,75.9,71.4,29.71,SW,230,10.4,10.4,86,0.04,CLR,OVC,0.30,WeatherDisplay:10.37,2013-06-18 22:28:00,
2013-06-18 18:33:00,75.7,71.3,29.72,SW,230,10.4,10.4,86,0.04,CLR,OVC,0.30,WeatherDisplay:10.37,2013-06-18 22:33:00,
2013-06-18 18:38:00,75.4,70.9,29.71,SW,230,10.4,10.4,86,0.04,CLR,OVC,0.30,WeatherDisplay:10.37,2013-06-18 22:38:00,
2013-06-18 18:43:00,75.0,70.9,29.71,SW,230,10.4,10.4,87,0.04,CLR,OVC,0.30,WeatherDisplay:10.37,2013-06-18 22:43:00,
2013-06-18 18:48:00,75.0,70.9,29.72,SW,230,10.4,10.4,87,0.04,CLR,OVC,0.30,WeatherDisplay:10.37,2013-06-18 22:48:00,
2013-06-18 18:53:00,74.8,70.7,29.72,SW,230,10.4,10.4,87,0.04,CLR,OVC,0.30,WeatherDisplay:10.37,2013-06-18 22:53:00,
2013-06-18 18:58:00,74.7,70.9,29.72,SW,230,10.4,10.4,88,0.04,CLR,OVC,0.30,WeatherDisplay:10.37,2013-06-18 22:58:00,
2013-06-18 19:03:00,74.5,70.7,29.72,SW,230,10.4,10.4,88,0.04,CLR,OVC,0.30,WeatherDisplay:10.37,2013-06-18 23:03:00,
2013-06-18 19:08:00,74.3,70.8,29.72,SW,230,10.4,10.4,89,0.02,CLR,OVC,0.30,WeatherDisplay:10.37,2013-06-18 23:08:00,
2013-06-18 19:13:00,74.3,70.8,29.72,SW,230,10.4,10.4,89,0.02,CLR,OVC,0.30,WeatherDisplay:10.37,2013-06-18 23:13:00,
2013-06-18 19:18:00,74.1,70.7,29.72,WSW,250,8.1,8.1,89,0.00,-RA,OVC,0.30,WeatherDisplay:10.37,2013-06-18 23:18:00,
2013-06-18 19:23:00,74.1,70.7,29.72,WSW,250,8.1,8.1,89,0.00,-RA,OVC,0.30,WeatherDisplay:10.37,2013-06-18 23:23:00,
2013-06-18 19:28:00,73.9,70.5,29.72,WSW,250,8.1,8.1,89,0.00,-RA,OVC,0.30,WeatherDisplay:10.37,2013-06-18 23:28:00,
2013-06-18 19:33:00,73.9,70.5,29.72,WSW,250,8.1,8.1,89,0.00,-RA,OVC,0.30,WeatherDisplay:10.37,2013-06-18 23:33:00,
2013-06-18 19:38:00,73.8,70.0,29.72,WSW,250,8.1,8.1,88,0.00,-RA,OVC,0.30,WeatherDisplay:10.37,2013-06-18 23:38:00,
2013-06-18 19:43:00,73.6,70.1,29.72,WSW,250,8.1,8.1,89,0.00,-RA,OVC,0.30,WeatherDisplay:10.37,2013-06-18 23:43:00,
2013-06-18 19:48:00,73.6,70.1,29.73,WSW,250,8.1,8.1,89,0.00,-RA,OVC,0.30,WeatherDisplay:10.37,2013-06-18 23:48:00,
2013-06-18 19:53:00,73.2,69.8,29.72,WSW,250,8.1,8.1,89,0.00,-RA,OVC,0.30,WeatherDisplay:10.37,2013-06-18 23:53:00,
2013-06-18 19:58:00,73.2,69.8,29.72,WSW,250,8.1,8.1,89,0.00,-RA,OVC,0.30,WeatherDisplay:10.37,2013-06-18 23:58:00,
2013-06-18 20:03:00,73.2,69.8,29.72,WSW,250,8.1,8.1,89,0.00,-RA,OVC,0.30,WeatherDisplay:10.37,2013-06-19 00:03:00,
2013-06-18 20:08:00,73.0,69.9,29.73,WSW,250,8.1,8.1,90,0.00,-RA,OVC,0.30,WeatherDisplay:10.37,2013-06-19 00:08:00,
2013-06-18 20:13:00,72.9,69.8,29.72,WSW,250,8.1,8.1,90,0.00,-RA,OVC,0.30,WeatherDisplay:10.37,2013-06-19 00:13:00,
2013-06-18 20:18:00,72.7,69.6,29.72,WSW,240,9.2,9.2,90,0.00,SCT,OVC,0.30,WeatherDisplay:10.37,2013-06-19 00:18:00,
2013-06-18 20:23:00,72.7,69.6,29.73,WSW,240,9.2,9.2,90,0.00,SCT,OVC,0.30,WeatherDisplay:10.37,2013-06-19 00:23:00,
2013-06-18 20:28:00,72.5,69.4,29.73,WSW,240,9.2,9.2,90,0.00,SCT,OVC,0.30,WeatherDisplay:10.37,2013-06-19 00:28:00,
2013-06-18 20:33:00,72.3,69.2,29.73,WSW,240,9.2,9.2,90,0.00,SCT,OVC,0.30,WeatherDisplay:10.37,2013-06-19 00:33:00,
2013-06-18 20:38:00,72.3,69.2,29.73,WSW,240,9.2,9.2,90,0.00,SCT,OVC,0.30,WeatherDisplay:10.37,2013-06-19 00:38:00,
2013-06-18 20:43:00,72.3,69.2,29.73,WSW,240,9.2,9.2,90,0.00,SCT,OVC,0.30,WeatherDisplay:10.37,2013-06-19 00:43:00,
2013-06-18 20:48:00,72.3,69.2,29.73,WSW,240,9.2,9.2,90,0.00,SCT,OVC,0.30,WeatherDisplay:10.37,2013-06-19 00:48:00,
2013-06-18 20:53:00,72.3,69.2,29.73,WSW,240,9.2,9.2,90,0.00,SCT,OVC,0.30,WeatherDisplay:10.37,2013-06-19 00:53:00,
2013-06-18 20:58:00,72.0,69.2,29.73,WSW,240,9.2,9.2,91,0.00,SCT,OVC,0.30,WeatherDisplay:10.37,2013-06-19 00:58:00,
2013-06-18 21:03:00,72.0,69.2,29.73,WSW,240,9.2,9.2,91,0.00,SCT,OVC,0.30,WeatherDisplay:10.37,2013-06-19 01:03:00,
2013-06-18 21:08:00,72.0,69.2,29.73,WSW,240,9.2,9.2,91,0.00,SCT,OVC,0.30,WeatherDisplay:10.37,2013-06-19 01:08:00,
2013-06-18 21:13:00,71.6,68.8,29.73,WSW,240,9.2,9.2,91,0.02,RA,OVC,0.32,WeatherDisplay:10.37,2013-06-19 01:13:00,
2013-06-18 21:18:00,71.4,68.7,29.73,WSW,240,9.2,9.2,91,0.02,RA,OVC,0.32,WeatherDisplay:10.37,2013-06-19 01:18:00,
2013-06-18 21:23:00,71.4,68.7,29.73,WSW,240,9.2,9.2,91,0.02,SCT,OVC,0.32,WeatherDisplay:10.37,2013-06-19 01:23:00,
2013-06-18 21:28:00,71.4,68.7,29.73,WSW,240,9.2,9.2,91,0.02,SCT,OVC,0.32,WeatherDisplay:10.37,2013-06-19 01:28:00,
2013-06-18 21:33:00,71.4,68.7,29.73,WSW,240,9.2,9.2,91,0.02,SCT,OVC,0.32,WeatherDisplay:10.37,2013-06-19 01:33:00,
2013-06-18 21:38:00,71.2,68.8,29.73,WSW,240,9.2,9.2,92,0.02,SCT,OVC,0.32,WeatherDisplay:10.37,2013-06-19 01:38:00,
2013-06-18 21:43:00,71.2,68.8,29.73,WSW,240,9.2,9.2,92,0.02,SCT,OVC,0.32,WeatherDisplay:10.37,2013-06-19 01:43:00,
2013-06-18 21:48:00,71.2,68.8,29.73,WSW,250,5.8,5.8,92,0.02,BKN,OVC,0.32,WeatherDisplay:10.37,2013-06-19 01:48:00,
2013-06-18 21:53:00,71.2,68.8,29.74,WSW,250,5.8,5.8,92,0.02,BKN,OVC,0.32,WeatherDisplay:10.37,2013-06-19 01:53:00,
2013-06-18 21:58:00,71.2,68.8,29.75,WSW,250,5.8,5.8,92,0.02,BKN,OVC,0.32,WeatherDisplay:10.37,2013-06-19 01:58:00,
2013-06-18 22:03:00,71.1,68.6,29.74,WSW,250,5.8,5.8,92,0.02,BKN,OVC,0.32,WeatherDisplay:10.37,2013-06-19 02:03:00,
2013-06-18 22:08:00,71.1,68.9,29.74,WSW,250,5.8,5.8,93,0.02,BKN,OVC,0.32,WeatherDisplay:10.37,2013-06-19 02:08:00,
2013-06-18 22:13:00,71.1,68.9,29.74,WSW,250,5.8,5.8,93,0.00,BKN,OVC,0.32,WeatherDisplay:10.37,2013-06-19 02:13:00,
2013-06-18 22:18:00,71.1,68.9,29.75,WSW,250,8.1,8.1,93,0.00,-RA,OVC,0.32,WeatherDisplay:10.37,2013-06-19 02:18:00,
2013-06-18 22:23:00,70.9,68.8,29.75,WSW,250,8.1,8.1,93,0.00,-RA,OVC,0.32,WeatherDisplay:10.37,2013-06-19 02:23:00,
2013-06-18 22:28:00,70.9,68.8,29.74,WSW,250,8.1,8.1,93,0.00,-RA,OVC,0.32,WeatherDisplay:10.37,2013-06-19 02:28:00,
2013-06-18 22:33:00,70.9,68.8,29.75,WSW,250,8.1,8.1,93,0.00,-RA,OVC,0.32,WeatherDisplay:10.37,2013-06-19 02:33:00,
2013-06-18 22:38:00,71.1,68.9,29.75,WSW,250,8.1,8.1,93,0.00,-RA,OVC,0.32,WeatherDisplay:10.37,2013-06-19 02:38:00,
2013-06-18 22:43:00,71.1,68.9,29.75,WSW,250,8.1,8.1,93,0.00,-RA,OVC,0.32,WeatherDisplay:10.37,2013-06-19 02:43:00,
2013-06-18 22:48:00,71.1,68.9,29.75,WSW,250,8.1,8.1,93,0.00,-RA,OVC,0.32,WeatherDisplay:10.37,2013-06-19 02:48:00,
2013-06-18 22:53:00,71.2,69.1,29.75,WSW,250,8.1,8.1,93,0.00,-RA,OVC,0.32,WeatherDisplay:10.37,2013-06-19 02:53:00,
2013-06-18 22:58:00,71.2,69.1,29.75,WSW,250,8.1,8.1,93,0.00,-RA,OVC,0.32,WeatherDisplay:10.37,2013-06-19 02:58:00,
2013-06-18 23:03:00,70.9,68.8,29.75,WSW,250,8.1,8.1,93,0.00,-RA,OVC,0.32,WeatherDisplay:10.37,2013-06-19 03:03:00,
2013-06-18 23:08:00,70.9,68.8,29.75,WSW,250,8.1,8.1,93,0.00,-RA,OVC,0.32,WeatherDisplay:10.37,2013-06-19 03:08:00,
2013-06-18 23:13:00,70.7,68.6,29.75,WSW,250,8.1,8.1,93,0.00,-RA,OVC,0.32,WeatherDisplay:10.37,2013-06-19 03:13:00,
2013-06-18 23:18:00,70.5,68.4,29.75,West,270,6.9,6.9,93,0.00,OVC,,0.32,WeatherDisplay:10.37,2013-06-19 03:18:00,
2013-06-18 23:23:00,70.5,68.4,29.76,West,270,6.9,6.9,93,0.00,OVC,,0.32,WeatherDisplay:10.37,2013-06-19 03:23:00,
2013-06-18 23:28:00,70.3,68.2,29.76,West,270,6.9,6.9,93,0.00,OVC,,0.32,WeatherDisplay:10.37,2013-06-19 03:28:00,
2013-06-18 23:33:00,70.3,68.2,29.76,West,270,6.9,6.9,93,0.00,OVC,,0.32,WeatherDisplay:10.37,2013-06-19 03:33:00,
2013-06-18 23:38:00,70.2,68.0,29.76,West,270,6.9,6.9,93,0.00,OVC,,0.32,WeatherDisplay:10.37,2013-06-19 03:38:00,
2013-06-18 23:43:00,70.2,68.0,29.76,West,270,6.9,6.9,93,0.00,OVC,,0.32,WeatherDisplay:10.37,2013-06-19 03:43:00,
2013-06-18 23:48:00,70.2,68.0,29.76,West,270,6.9,6.9,93,0.00,OVC,,0.32,WeatherDisplay:10.37,2013-06-19 03:48:00,
2013-06-18 23:53:00,70.0,67.9,29.76,West,270,6.9,6.9,93,0.00,OVC,,0.32,WeatherDisplay:10.37,2013-06-19 03:53:00,
2013-06-18 23:58:00,70.2,68.0,29.76,West,270,6.9,6.9,93,0.00,OVC,,0.32,WeatherDisplay:10.37,2013-06-19 03:58:00,